{"data":{"norad_id":59890,"epoch":"2026-05-25T00:34:59.755008Z","epoch_age_seconds":83232,"freshness":"FRESH","line1":"1 59890U 24100F   26145.02430272  .00000724  00000+0  35816-4 0  9995","line2":"2 59890  43.0022  54.0934 0001282 253.4296 106.6415 15.27583311112736","mean_motion":15.27583311,"eccentricity":0.0001282,"inclination_deg":43.0022,"raan_deg":54.0934,"arg_perigee_deg":253.4296,"mean_anomaly_deg":106.6415,"bstar":3.5816e-5,"rev_number":11273,"period_min":94.266544392746,"perigee_km":482.15957894594,"apogee_km":483.91878451893,"semimajor_km":6861.1761817324,"source":"CELESTRAK","updated_at":"2026-05-25T13:38:19.116791Z"}}